W1MWS-13 Weather Reports


Display with metric or nautical units.
time (UTC)temp
F
wind
direction
speed
MPH
gust
MPH
rain 1hr
in
rain 24hr
in
rain mn
in
humidity
%
barometer
mb
20260507163821 63 203 5.0 7.0 0.00 0.20 0.02 48 1006.9
20260507163318 62 133 4.0 4.0 0.00 0.20 0.02 51 1007.0
20260507162815 62 192 7.0 8.0 0.00 0.20 0.02 50 1007.0
20260507162330 62 203 5.0 5.0 0.00 0.20 0.02 51 1007.0
20260507161821 62 270 7.0 9.0 0.00 0.20 0.02 51 1007.1
20260507161330 61 225 7.0 8.0 0.00 0.20 0.02 53 1007.1
20260507160841 62 180 10.0 11.0 0.00 0.20 0.02 53 1007.1
20260507160330 61 248 9.0 11.0 0.00 0.20 0.02 56 1007.1
20260507155856 60 166 7.0 9.0 0.00 0.20 0.02 58 1007.1
20260507155324 61 210 5.0 6.0 0.00 0.20 0.02 60 1007.0
20260507154835 60 195 7.0 9.0 0.00 0.20 0.02 60 1007.0
20260507154323 62 238 4.0 5.0 0.00 0.20 0.02 59 1007.0
20260507153853 62 225 6.0 6.0 0.00 0.20 0.02 60 1007.0
20260507153324 62 158 5.0 7.0 0.00 0.20 0.02 62 1007.0
20260507152833 62 161 6.0 7.0 0.00 0.20 0.02 62 1007.3
20260507152324 62 270 6.0 7.0 0.00 0.20 0.02 60 1007.3
20260507151835 61 113 5.0 7.0 0.00 0.20 0.02 62 1007.4
20260507151331 63 203 4.0 4.0 0.00 0.20 0.02 63 1007.4
20260507150821 62 185 5.0 6.0 0.00 0.20 0.02 63 1007.6
20260507150324 61 180 5.0 7.0 0.00 0.20 0.02 64 1007.6
20260507145821 60 123 7.0 8.0 0.00 0.20 0.02 65 1007.6
20260507145318 59 203 6.0 7.0 0.00 0.20 0.02 67 1007.7
20260507144815 59 180 5.0 8.0 0.00 0.20 0.02 69 1007.7
20260507144338 60 258 4.0 4.0 0.00 0.20 0.02 67 1007.7
20260507143821 60 203 7.0 8.0 0.00 0.20 0.02 68 1007.7
20260507143329 60 135 1.0 2.0 0.00 0.20 0.02 68 1007.6
20260507142820 59 225 4.0 5.0 0.00 0.20 0.02 68 1007.6
20260507142329 59 203 1.0 3.0 0.00 0.20 0.02 67 1007.6
20260507141820 60 213 5.0 5.0 0.00 0.20 0.02 66 1007.8
20260507141329 59 264 5.0 6.0 0.00 0.20 0.02 66 1007.8
20260507140819 58 225 5.0 5.0 0.00 0.20 0.02 70 1007.8
20260507140346 59 175 3.0 3.0 0.00 0.20 0.02 70 1007.8
20260507135824 58 225 4.0 4.0 0.00 0.20 0.02 72 1007.8
20260507135321 58 225 6.0 6.0 0.00 0.20 0.02 71 1007.7
20260507134822 59 270 6.0 7.0 0.00 0.20 0.02 69 1007.7
20260507134325 59 270 5.0 6.0 0.00 0.20 0.02 69 1007.7
20260507133815 59 198 4.0 5.0 0.00 0.20 0.02 71 1007.7
20260507133325 59 270 3.0 5.0 0.00 0.20 0.02 71 1007.7
20260507132815 58 261 3.0 4.0 0.00 0.20 0.02 72 1008.0
20260507132338 58 256 5.0 6.0 0.00 0.20 0.02 73 1008.0
20260507131815 57 236 6.0 6.0 0.00 0.20 0.02 73 1008.3
20260507131324 57 248 2.0 3.0 0.00 0.20 0.02 75 1008.3
20260507130815 57 236 5.0 6.0 0.00 0.20 0.02 75 1008.4
20260507130324 57 180 3.0 4.0 0.00 0.20 0.02 76 1008.4
20260507125836 56 215 4.0 5.0 0.00 0.20 0.02 78 1008.4
20260507125324 56 180 6.0 6.0 0.00 0.20 0.02 78 1008.5
20260507124836 55 239 6.0 7.0 0.00 0.20 0.02 79 1008.5
20260507124325 55 212 5.0 5.0 0.00 0.20 0.02 80 1008.5
20260507123816 55 225 4.0 5.0 0.00 0.20 0.02 80 1008.5
20260507123344 54 214 5.0 6.0 0.00 0.20 0.02 82 1008.5
20260507122834 54 258 6.0 8.0 0.00 0.20 0.02 83 1008.6
20260507122324 54 270 8.0 10.0 0.00 0.20 0.02 84 1008.6
20260507121833 53 225 6.0 7.0 0.00 0.20 0.02 83 1008.7
20260507121324 53 270 8.0 9.0 0.00 0.20 0.02 86 1008.7
20260507120815 52 203 4.0 5.0 0.00 0.20 0.02 88 1008.7
20260507120344 51 242 4.0 4.0 0.00 0.20 0.02 88 1008.7
20260507115815 52 154 4.0 5.0 0.00 0.20 0.02 89 1008.7
20260507115324 53 203 4.0 4.0 0.00 0.20 0.02 89 1008.5
20260507114820 52 214 3.0 3.0 0.00 0.20 0.02 90 1008.5
20260507114317 51 203 3.0 3.0 0.00 0.20 0.02 93 1008.5
20260507113832 51 158 1.0 2.0 0.00 0.20 0.02 93 1008.5
20260507113316 50 203 2.0 2.0 0.00 0.20 0.02 94 1008.5
20260507112825 50 225 4.0 4.0 0.00 0.20 0.02 95 1008.5
20260507112316 50 180 2.0 2.0 0.00 0.20 0.02 96 1008.5
20260507111905 50 190 3.0 3.0 0.00 0.20 0.02 96
20260507111316 50 248 2.0 3.0 0.00 0.20 0.02 96 1008.3
20260507110824 50 0.0 0.0 0.00 0.20 0.02 98 1008.4
20260507110316 49 0.0 0.0 0.00 0.20 0.02 98 1008.4
20260507105825 49 0.0 0.0 0.00 0.20 0.02 98 1008.4
20260507105316 49 0.0 0.0 0.00 0.20 0.02 98 1008.3
20260507104844 49 194 2.0 3.0 0.00 0.20 0.02 97 1008.3
20260507104315 49 225 2.0 2.0 0.00 0.20 0.02 98 1007.8
20260507103825 49 212 5.0 5.0 0.00 0.20 0.02 98 1007.8
20260507103315 49 236 2.0 2.0 0.00 0.20 0.02 99 1007.8
20260507102825 48 158 1.0 2.0 0.00 0.20 0.02 99 1007.7
20260507102315 48 270 3.0 4.0 0.00 0.20 0.02 99 1007.7
20260507101824 48 180 3.0 3.0 0.00 0.20 0.02 99 1007.5
20260507101315 48 214 2.0 3.0 0.00 0.20 0.02 99 1007.5
20260507100819 48 248 3.0 3.0 0.00 0.20 0.02 99 1007.6
20260507100333 48 203 2.0 3.0 0.00 0.20 0.02 99 1007.6
20260507095824 48 216 3.0 3.0 0.00 0.20 0.02 99 1007.6
20260507095315 48 214 3.0 3.0 0.00 0.20 0.02 99 1007.4
20260507094845 48 228 4.0 5.0 0.00 0.20 0.02 99 1007.4
20260507094315 48 248 4.0 4.0 0.00 0.20 0.02 99 1007.8
20260507093824 48 225 2.0 3.0 0.00 0.20 0.02 99 1007.8
20260507093315 48 194 4.0 6.0 0.00 0.20 0.02 99 1007.8
20260507092844 48 225 3.0 4.0 0.00 0.20 0.02 99 1007.9
20260507092315 49 217 2.0 2.0 0.00 0.20 0.02 99 1007.9
20260507091824 49 203 2.0 2.0 0.00 0.20 0.02 99 1007.9
20260507091315 49 0.0 2.0 0.00 0.20 0.02 99 1007.9
20260507090824 49 158 3.0 3.0 0.00 0.20 0.02 99 1008.1
20260507090316 49 240 3.0 4.0 0.00 0.20 0.02 99 1008.1
20260507085824 49 248 5.0 7.0 0.00 0.20 0.02 99 1008.1
20260507085316 49 242 3.0 4.0 0.00 0.20 0.02 99 1007.9
20260507084905 49 195 2.0 2.0 0.00 0.20 0.02 99 1007.9
20260507084316 49 0.0 0.0 0.00 0.20 0.02 99 1007.7
20260507083825 49 203 4.0 6.0 0.01 0.20 0.02 99 1007.7
20260507083316 50 234 5.0 5.0 0.01 0.20 0.02 99 1007.7
20260507082819 50 203 2.0 3.0 0.01 0.20 0.02 99 1007.5
20260507082336 50 259 3.0 5.0 0.01 0.20 0.02 99 1007.5
20260507081825 50 248 3.0 4.0 0.01 0.20 0.02 99 1007.4
20260507081356 50 225 3.0 3.0 0.01 0.20 0.02 99 1007.4
20260507080905 50 225 3.0 3.0 0.01 0.20 0.02 99 1007.5
20260507080316 50 195 2.0 3.0 0.01 0.20 0.02 99 1007.5
20260507075826 50 219 3.0 4.0 0.01 0.20 0.02 99 1007.5
20260507075317 51 244 3.0 4.0 0.01 0.20 0.02 99 1007.8
20260507074841 51 270 5.0 5.0 0.01 0.20 0.02 99 1007.8
20260507074350 51 191 6.0 8.0 0.01 0.20 0.02 99 1007.9
20260507073820 51 203 4.0 4.0 0.00 0.19 0.01 99 1007.9
20260507073330 52 203 3.0 3.0 0.00 0.19 0.01 99 1007.9
20260507072841 0 203 0.0 1.0 0.00 0.19 0.01 1007.2
20260507072350 52 203 1.0 2.0 0.00 0.19 0.01 99 1007.2
20260507071841 52 229 3.0 3.0 0.00 0.19 0.01 99 1007.0
20260507071330 52 189 1.0 2.0 0.00 0.19 0.01 99 1007.0
20260507070330 52 191 2.0 2.0 0.00 0.19 0.01 99 1007.0
20260507065841 52 225 2.0 3.0 0.00 0.19 0.01 99 1007.0
20260507065319 52 203 2.0 3.0 0.00 0.19 0.01 99 1006.6
20260507064822 52 225 3.0 3.0 0.00 0.19 0.01 99 1006.6
20260507064319 52 230 3.0 4.0 0.00 0.19 0.01 99 1006.9
20260507063816 52 203 2.0 2.0 0.00 0.19 0.01 99 1006.9
20260507063319 52 203 4.0 4.0 0.00 0.19 0.01 99 1007.0
20260507062848 52 198 3.0 3.0 0.00 0.19 0.01 99 1007.0
20260507062320 52 165 4.0 4.0 0.00 0.19 0.01 99 1007.0
20260507061828 52 226 5.0 6.0 0.00 0.19 0.01 99 1006.7
20260507061339 52 248 4.0 5.0 0.00 0.19 0.01 99 1006.7
20260507060828 52 248 4.0 4.0 0.00 0.19 0.01 99 1006.7
20260507060319 52 237 4.0 5.0 0.00 0.19 0.01 99 1006.7
20260507055828 53 225 4.0 4.0 0.00 0.19 0.01 98 1006.7
20260507055319 53 242 4.0 5.0 0.00 0.19 0.01 98 1007.1
20260507054828 53 203 5.0 5.0 0.00 0.19 0.01 99 1007.1
20260507054319 53 248 4.0 5.0 0.00 0.19 0.01 99 1007.4
20260507053828 53 203 4.0 4.0 0.00 0.19 0.01 99 1007.4
20260507053319 53 204 4.0 5.0 0.00 0.19 0.01 99 1007.4
20260507052828 53 270 5.0 5.0 0.00 0.19 0.01 99 1007.1
20260507052319 54 203 6.0 9.0 0.00 0.19 0.01 99 1007.1
20260507051848 54 203 4.0 6.0 0.00 0.19 0.01 99 1007.3
20260507051319 54 180 5.0 6.0 0.00 0.19 0.01 99 1007.3
20260507050822 54 203 4.0 4.0 0.00 0.19 0.01 99 1007.0
20260507050319 54 214 6.0 6.0 0.00 0.19 0.01 99 1007.0
20260507045816 55 218 2.0 3.0 0.01 0.19 0.01 99 1007.0
20260507045319 55 203 1.0 3.0 0.03 0.19 0.01 99 1007.2
20260507044828 55 214 4.0 4.0 0.03 0.19 0.01 99 1007.2
20260507044319 55 203 2.0 3.0 0.03 0.19 0.01 99 1006.9
20260507043828 55 203 5.0 6.0 0.03 0.19 0.01 99 1006.9
20260507043319 55 203 6.0 7.0 0.03 0.19 0.01 99
20260507042828 55 225 4.0 5.0 0.03 0.19 0.01 99 1006.9
20260507042319 55 270 4.0 4.0 0.03 0.19 0.01 99 1006.9
20260507041829 55 225 3.0 3.0 0.03 0.19 0.01 99 1006.9
20260507041320 55 229 6.0 7.0 0.03 0.19 0.01 99 1006.9
20260507040829 55 180 6.0 7.0 0.03 0.19 0.01 99 1007.0
20260507040321 56 210 8.0 12.0 0.03 0.19 0.01 99 1007.0
20260507035823 57 191 5.0 5.0 0.02 0.18 0.18 99 1007.0
20260507035332 57 225 4.0 6.0 0.00 0.16 0.16 99 1006.8
20260507034823 58 270 8.0 8.0 0.00 0.16 0.16 98 1006.8
20260507034352 58 180 10.0 12.0 0.01 0.16 0.16 98 1006.4
20260507033823 59 203 6.0 8.0 0.01 0.16 0.16 99 1006.4
20260507033327 59 158 3.0 4.0 0.01 0.16 0.16 99 1006.4
20260507032823 59 190 3.0 4.0 0.01 0.16 0.16 99 1006.4
20260507032340 59 43 4.0 6.0 0.01 0.16 0.16 99 1006.4
20260507031818 59 180 5.0 7.0 0.01 0.16 0.16 99 1006.0
20260507031413 59 203 6.0 8.0 0.01 0.16 0.16 99 1006.0
20260507030824 59 225 7.0 8.0 0.01 0.16 0.16 99 1005.7
20260507030332 59 204 2.0 2.0 0.01 0.16 0.16 99 1005.7
20260507025823 59 146 3.0 4.0 0.01 0.16 0.16 99 1005.7
20260507025332 59 158 2.0 3.0 0.01 0.16 0.16 99 1005.9
20260507024823 59 158 6.0 6.0 0.01 0.16 0.16 99 1005.9
20260507024333 59 125 5.0 7.0 0.00 0.15 0.15 99 1005.8
20260507023824 59 158 4.0 5.0 0.00 0.15 0.15 99 1005.8
20260507023335 59 113 2.0 3.0 0.00 0.15 0.15 99 1005.8
20260507022838 59 113 3.0 3.0 0.00 0.15 0.15 99 1005.8
20260507022328 59 90 2.0 3.0 0.00 0.15 0.15 99 1005.8
20260507021819 59 180 3.0 4.0 0.00 0.15 0.15 99 1005.6
20260507021323 59 90 2.0 2.0 0.00 0.15 0.15 99 1005.6
20260507020831 59 68 1.0 1.0 0.00 0.15 0.15 99 1005.7
20260507020341 59 70 3.0 3.0 0.00 0.15 0.15 99 1005.7
20260507015851 59 113 2.0 3.0 0.00 0.15 0.15 99 1005.7
20260507015322 59 113 2.0 2.0 0.00 0.15 0.15 99 1005.7
20260507014824 59 113 4.0 4.0 0.00 0.15 0.15 99 1005.7
20260507014318 59 113 1.0 2.0 0.00 0.15 0.15 99 1005.8
20260507013846 59 0.0 0.0 0.00 0.15 0.15 99 1005.8
20260507013317 59 107 3.0 4.0 0.00 0.15 0.15 99 1005.7
20260507012827 59 125 3.0 4.0 0.00 0.15 0.15 99 1005.7
20260507012318 59 166 2.0 4.0 0.00 0.15 0.15 99 1005.7
20260507011827 59 84 3.0 4.0 0.00 0.15 0.15 99 1005.8
20260507011330 59 68 1.0 2.0 0.00 0.15 0.15 99 1005.8
20260507010822 59 45 4.0 5.0 0.00 0.15 0.15 99 1005.9
20260507010331 59 68 3.0 3.0 0.00 0.15 0.15 99 1005.9
20260507005822 59 113 3.0 3.0 0.00 0.15 0.15 99 1005.9
20260507005331 59 158 2.0 3.0 0.00 0.15 0.15 99 1005.8
20260507004822 59 88 4.0 4.0 0.00 0.15 0.15 99 1005.8
20260507004351 59 135 4.0 5.0 0.00 0.15 0.15 99 1005.7
20260507003822 59 32 5.0 6.0 0.00 0.15 0.15 99 1005.7
20260507003331 59 39 5.0 6.0 0.00 0.15 0.15 99 1005.7
20260507002817 59 37 5.0 7.0 0.00 0.15 0.15 99 1005.7
20260507002326 59 68 4.0 4.0 0.00 0.15 0.15 99 1005.7
20260507001817 59 45 3.0 3.0 0.00 0.15 0.15 99 1005.7
20260507001326 59 45 3.0 4.0 0.01 0.15 0.15 99 1005.7
20260507000815 59 225 4.0 5.0 0.01 0.15 0.15 99 1005.6
20260507000338 59 68 3.0 4.0 0.02 0.15 0.15 99 1005.6
20260506235816 59 56 3.0 4.0 0.03 0.15 0.15 99 1005.6
20260506235320 59 23 4.0 5.0 0.04 0.15 0.15 99 1005.5
20260506234826 59 338 4.0 4.0 0.04 0.15 0.15 99 1005.5
20260506234317 59 102 4.0 5.0 0.05 0.15 0.15 99 1005.5
20260506233826 59 113 4.0 5.0 0.05 0.15 0.15 99 1005.5
20260506233318 59 122 4.0 5.0 0.05 0.15 0.15 99 1005.5
20260506232820 59 68 4.0 4.0 0.06 0.15 0.15 99 1005.4
20260506232328 60 90 3.0 4.0 0.07 0.15 0.15 99 1005.4
20260506231819 60 52 4.0 6.0 0.07 0.15 0.15 99 1005.5
20260506231326 60 45 3.0 4.0 0.06 0.14 0.14 99 1005.5
20260506230830 60 68 4.0 5.0 0.06 0.14 0.14 99 1005.6
20260506230321 60 45 5.0 8.0 0.05 0.13 0.13 99 1005.6
20260506225830 60 113 4.0 6.0 0.04 0.12 0.12 99 1005.6
20260506225322 0 82 3.0 3.0 0.03 0.11 0.11 1005.7
20260506224831 60 118 3.0 4.0 0.03 0.11 0.11 99 1005.7
20260506224322 60 101 3.0 3.0 0.02 0.10 0.10 99 1005.6
20260506223823 60 23 6.0 8.0 0.02 0.10 0.10 99 1005.6
20260506223320 60 98 4.0 5.0 0.02 0.10 0.10 99 1005.7
20260506222817 60 68 3.0 4.0 0.01 0.09 0.09 99 1005.7
20260506222341 60 68 5.0 6.0 0.00 0.08 0.08 99 1005.7
20260506221830 60 90 4.0 5.0 0.00 0.08 0.08 99 1005.8
20260506221321 60 45 5.0 5.0 0.00 0.08 0.08 99 1005.8
20260506220843 60 68 3.0 4.0 0.00 0.08 0.08 99 1005.9
20260506220352 60 31 4.0 5.0 0.00 0.08 0.08 99 1005.9
20260506215823 60 56 4.0 5.0 0.00 0.08 0.08 99 1005.9
20260506215333 60 81 4.0 5.0 0.01 0.08 0.08 99 1006.0
20260506214824 60 58 6.0 7.0 0.01 0.08 0.08 99 1006.0
20260506214333 60 5.0 5.0 0.01 0.08 0.08 99 1006.0
20260506213838 60 68 6.0 7.0 0.01 0.08 0.08 99 1006.0
20260506213327 60 68 4.0 6.0 0.02 0.08 0.08 99 1006.0
20260506212817 60 71 4.0 4.0 0.02 0.08 0.08 99 1006.1
20260506212325 60 68 7.0 8.0 0.02 0.08 0.08 99 1006.1
20260506211817 60 70 5.0 6.0 0.02 0.08 0.08 99 1006.3
20260506211326 60 92 4.0 6.0 0.03 0.08 0.08 99 1006.3
20260506210817 60 75 5.0 6.0 0.03 0.08 0.08 99 1006.4
20260506210326 60 77 5.0 6.0 0.03 0.08 0.08 99 1006.4
20260506205817 60 76 6.0 7.0 0.04 0.08 0.08 99 1006.4
20260506205321 61 68 4.0 5.0 0.03 0.07 0.07 99 1006.5
20260506204817 61 45 3.0 4.0 0.03 0.07 0.07 99 1006.5
20260506204320 61 5.0 5.0 0.03 0.07 0.07 99 1006.6
20260506203829 61 113 6.0 6.0 0.03 0.07 0.07 99 1006.6
20260506203340 61 194 5.0 6.0 0.02 0.06 0.06 99 1006.5
20260506202828 61 113 9.0 11.0 0.02 0.06 0.06 99 1006.5
20260506202320 61 82 8.0 10.0 0.03 0.06 0.06 99 1006.5
20260506201823 61 124 6.0 6.0 0.03 0.06 0.06 99 1006.2
20260506201328 62 55 4.0 5.0 0.03 0.05 0.05 99 1006.2
20260506200818 62 68 4.0 5.0 0.03 0.05 0.05 99 1006.4
20260506200327 62 90 7.0 8.0 0.03 0.05 0.05 99 1006.4
20260506195838 62 68 5.0 7.0 0.03 0.04 0.04 99 1006.4
20260506195325 63 45 6.0 6.0 0.03 0.04 0.04 99 1006.5
20260506194816 63 68 5.0 7.0 0.04 0.04 0.04 99 1006.5
20260506194325 63 5.0 6.0 0.04 0.04 0.04 99 1006.4
20260506193849 63 90 3.0 3.0 0.04 0.04 0.04 99 1006.4
20260506193319 64 71 3.0 4.0 0.04 0.04 0.04 99 1006.4
20260506192827 64 60 4.0 5.0 0.04 0.04 0.04 99 1006.4
20260506192319 64 90 2.0 3.0 0.03 0.03 0.03 98 1006.4
20260506191842 64 90 3.0 3.0 0.03 0.03 0.03 98 1006.3
20260506191319 64 113 7.0 7.0 0.02 0.02 0.02 98 1006.3
20260506190856 65 65 4.0 5.0 0.02 0.02 0.02 96 1006.4
20260506190319 65 58 3.0 4.0 0.02 0.02 0.02 94 1006.4
20260506185828 66 113 5.0 6.0 0.01 0.01 0.01 91 1006.4
20260506185339 66 207 4.0 5.0 0.01 0.01 0.01 88 1006.6
20260506184847 67 49 10.0 12.0 0.00 0.00 0.00 85 1006.6
20260506184319 68 119 5.0 5.0 0.00 0.00 0.00 83 1006.5
20260506183828 68 60 6.0 7.0 0.00 0.00 0.00 82 1006.5
20260506183318 69 113 7.0 12.0 0.00 0.00 0.00 81 1006.5
20260506182829 69 45 5.0 6.0 0.00 0.00 0.00 80 1006.6
20260506182319 70 180 5.0 5.0 0.00 0.00 0.00 78 1006.6
20260506181828 70 113 5.0 6.0 0.00 0.00 0.00 75 1006.4
20260506181318 71 89 6.0 7.0 0.00 0.00 0.00 73 1006.4
20260506180822 72 180 8.0 9.0 0.00 0.00 0.00 69 1006.6
20260506180422 72 68 3.0 4.0 0.00 0.00 0.00 68 1006.6
20260506175830 72 68 8.0 10.0 0.00 0.01 0.00 68 1006.6
20260506175341 73 0 6.0 7.0 0.00 0.01 0.00 67 1006.5
20260506174824 73 180 6.0 7.0 0.00 0.01 0.00 66 1006.5
20260506174321 73 103 7.0 7.0 0.00 0.01 0.00 65 1006.7
20260506173817 74 158 7.0 8.0 0.00 0.01 0.00 65 1006.7
20260506173412 74 85 10.0 11.0 0.00 0.01 0.00 64 1006.6
20260506172904 74 68 5.0 5.0 0.00 0.01 0.00 64 1006.6
20260506172333 74 144 4.0 6.0 0.00 0.01 0.00 64 1006.6
20260506171818 74 203 3.0 4.0 0.00 0.01 0.00 64 1006.7
20260506171325 74 135 5.0 6.0 0.00 0.01 0.00 65 1006.7
20260506170815 75 69 6.0 9.0 0.00 0.01 0.00 65 1006.7
20260506170324 75 45 8.0 10.0 0.00 0.01 0.00 65 1006.7
20260506165822 75 90 6.0 8.0 0.00 0.01 0.00 66 1006.7
20260506165351 74 68 5.0 6.0 0.00 0.01 0.00 68 1007.0
20260506164822 73 80 5.0 6.0 0.00 0.01 0.00 68 1007.0
20260506164331 73 74 6.0 7.0 0.00 0.01 0.00 68 1007.2